sat.trackr.live / text

‹ back to catalog

ONEWEB-0020

NORAD 45133 · 2020-008C

PAYLOAD ACTIVE UNKNOWN

§ Identity

Operator
Country
UK
Launch date
2020-02-06
Launch site
TYMSC
Launch vehicle
Mass (kg)
RCS (m²)

Purposes: comms

External: N2YO · Heavens-Above · Gunter

§ Orbital elements

Epoch: 2026-05-25T03:20:04.810848Z

Period
109.89 min
Inclination
87.8864°
Eccentricity
0.0001831
Mean motion
13.10376766 rev/d
Perigee alt
1,220.3 km
Apogee alt
1,223.1 km
Semi-major
7,599.8 km
B*
-1.2156e-4
RAAN
40.8543°
Arg perigee
78.3472°
Mean anomaly
281.7860°
Rev number
30,532

§ Raw data

ONEWEB-00201 45133U 20008C   26145.13894457 -.00000030  00000+0 -12156-3 0  99972 45133  87.8864  40.8543 0001831  78.3472 281.7860 13.10376766305322

JSON: /api/v1/satellites/45133 · /tle

For live sub-satellite position, see the globe view (requires WebGL).

§ Visibility from observer

Set your observer location to see the next 7 days of passes ≥ 10°. The values pass through the URL so the page stays shareable.

No JS? Fill the form by hand. The geolocation button needs JavaScript.